{"data":{"norad_id":57609,"intl_designator":"2023-119H","name":"STARLINK-30174","alt_names":[],"object_type":"PAYLOAD","status":"ACTIVE","operator":null,"country":"US","launch_date":"2023-08-11","launch_site_code":"AFETR","launch_vehicle":null,"mission":null,"orbit_class":"UNKNOWN","rcs_meters":null,"size_class":null,"mass_kg":null,"dimensions":null,"purposes":["comms"],"wikipedia_slug":null,"has_3d_model":false,"image_url":null,"decayed_at":null,"tle_current":{"epoch":"2026-09-19T04:38:14.737632Z","epoch_age_seconds":240848,"freshness":"STALE","line1":"1 57609U 23119H   26262.19322613  .00001432  00000+0  61557-4 0  9995","line2":"2 57609  43.0072  68.4783 0001969 260.3468  99.7161 15.27574819172681","mean_motion":15.27574819,"eccentricity":0.0001969,"inclination_deg":43.0072,"raan_deg":68.4783,"arg_perigee_deg":260.3468,"mean_anomaly_deg":99.7161,"bstar":6.1557e-5,"rev_number":17268,"period_min":94.267068433523,"perigee_km":481.71363926437,"apogee_km":484.41558045834,"semimajor_km":6861.2016098614,"source":"CELESTRAK","updated_at":"2026-09-21T09:00:33.641245Z"}}}